RA213 ZULS-VNKT

Flight info

Callsign RA213
Flight time 1h 16m
Altitude 38100
Route DEP10R IKUBI B345 NONIM/N0455F380 B345 KIMTI KMTI1G
Aircraft A20N/M-SDE2E3FGHIRWXY/LB1

Departure

Time 2026-04-16 13:43
Airport Lhasa Gonggar International Airport (ZULS)

Arrival

Time 2026-04-16 14:59
Airport Tribhuvan International Airport (VNKT)
Time Latitude Longitude Altitude Speed Heading
2026-04-16 13:41 29.29778 90.89268 11906 ft 0 kts 86°
2026-04-16 13:42 29.29778 90.89269 11906 ft 0 kts 86°
2026-04-16 13:42 29.29782 90.89431 11903 ft 55 kts 88°
2026-04-16 13:42 29.29792 90.90179 11897 ft 128 kts 89°
2026-04-16 13:42 29.29811 90.91422 11888 ft 187 kts 91°
2026-04-16 13:43 29.29814 90.92989 12375 ft 202 kts 89°
2026-04-16 13:43 29.29804 90.94614 13073 ft 211 kts 88°
2026-04-16 13:43 29.29842 90.96259 13865 ft 205 kts 87°
2026-04-16 13:43 29.29891 90.97942 14209 ft 218 kts 87°
2026-04-16 13:44 29.29893 90.99712 14488 ft 233 kts 88°
2026-04-16 13:44 29.30152 91.01628 14653 ft 254 kts 70°
2026-04-16 13:44 29.30878 91.03496 15240 ft 258 kts 64°
2026-04-16 13:44 29.31551 91.05404 15935 ft 260 kts 73°
2026-04-16 13:45 29.31866 91.07471 16631 ft 263 kts 87°
2026-04-16 13:45 29.31731 91.09566 17294 ft 266 kts 101°
2026-04-16 13:45 29.31295 91.11626 17969 ft 269 kts 103°
2026-04-16 13:45 29.30922 91.13390 18515 ft 273 kts 101°
2026-04-16 13:46 29.30916 91.13418 18478 ft 273 kts 101°
2026-04-16 13:46 29.30579 91.15358 18918 ft 279 kts 99°
2026-04-16 13:46 29.30296 91.17590 19391 ft 286 kts 95°
2026-04-16 13:46 29.30107 91.19849 19924 ft 290 kts 94°
2026-04-16 13:47 29.29932 91.22175 20489 ft 294 kts 94°
2026-04-16 13:47 29.29761 91.24508 21098 ft 298 kts 93°
2026-04-16 13:47 29.29589 91.26881 21689 ft 304 kts 94°
2026-04-16 13:47 29.29412 91.29317 22316 ft 309 kts 94°
2026-04-16 13:48 29.29126 91.31797 22933 ft 315 kts 104°
2026-04-16 13:48 29.28401 91.34145 23529 ft 319 kts 117°
2026-04-16 13:48 29.27216 91.36296 24126 ft 321 kts 131°
2026-04-16 13:48 29.25620 91.38099 24755 ft 322 kts 146°
2026-04-16 13:49 29.23717 91.39449 25334 ft 323 kts 159°
2026-04-16 13:49 29.21630 91.40407 25921 ft 325 kts 163°
2026-04-16 13:49 29.19495 91.41284 26463 ft 330 kts 164°
2026-04-16 13:49 29.17324 91.42188 27025 ft 334 kts 163°
2026-04-16 13:50 29.15129 91.43131 27580 ft 339 kts 164°
2026-04-16 13:50 29.12815 91.43776 28119 ft 336 kts 180°
2026-04-16 13:50 29.10524 91.43664 28638 ft 330 kts 197°
2026-04-16 13:50 29.08362 91.42825 29158 ft 324 kts 213°
2026-04-16 13:51 29.06523 91.41381 29617 ft 320 kts 228°
2026-04-16 13:51 29.05104 91.39460 30047 ft 316 kts 243°
2026-04-16 13:51 29.04184 91.37209 30489 ft 312 kts 257°
2026-04-16 13:51 29.03804 91.34779 30929 ft 308 kts 271°
2026-04-16 13:52 29.03979 91.32347 31417 ft 304 kts 285°
2026-04-16 13:52 29.04545 91.29984 31829 ft 306 kts 288°
2026-04-16 13:52 29.05160 91.27611 32010 ft 315 kts 288°
2026-04-16 13:52 29.05795 91.25167 32196 ft 324 kts 288°
2026-04-16 13:53 29.06444 91.22673 32375 ft 333 kts 288°
2026-04-16 13:53 29.07113 91.20089 32556 ft 341 kts 288°
2026-04-16 13:53 29.07783 91.17490 32723 ft 349 kts 288°
2026-04-16 13:53 29.08481 91.14785 32884 ft 357 kts 288°
2026-04-16 13:54 29.09189 91.12037 33048 ft 364 kts 288°
2026-04-16 13:54 29.09906 91.09245 33201 ft 371 kts 288°
2026-04-16 13:54 29.10637 91.06396 33347 ft 378 kts 288°
2026-04-16 13:54 29.11384 91.03484 33502 ft 384 kts 288°
2026-04-16 13:55 29.12142 91.00526 33655 ft 390 kts 288°
2026-04-16 13:55 29.12906 90.97543 33873 ft 393 kts 288°
2026-04-16 13:55 29.13673 90.94546 34211 ft 394 kts 288°
2026-04-16 13:55 29.14444 90.91527 34601 ft 393 kts 288°
2026-04-16 13:56 29.15208 90.88538 34976 ft 392 kts 288°
2026-04-16 13:56 29.15966 90.85564 35350 ft 391 kts 288°
2026-04-16 13:56 29.16724 90.82577 35723 ft 390 kts 288°
2026-04-16 13:56 29.17481 90.79597 36076 ft 389 kts 287°
2026-04-16 13:57 29.18236 90.76626 36397 ft 388 kts 288°
2026-04-16 13:57 29.18983 90.73674 36711 ft 388 kts 287°
2026-04-16 13:57 29.19737 90.70701 36987 ft 388 kts 287°
2026-04-16 13:58 29.21237 90.64780 37437 ft 389 kts 287°
2026-04-16 13:58 29.21995 90.61787 37607 ft 391 kts 287°
2026-04-16 13:58 29.22748 90.58800 37769 ft 393 kts 287°
2026-04-16 13:58 29.23513 90.55766 37974 ft 393 kts 287°
2026-04-16 13:59 29.24265 90.52786 38151 ft 394 kts 287°
2026-04-16 13:59 29.25025 90.49766 38321 ft 395 kts 287°
2026-04-16 13:59 29.25788 90.46735 38472 ft 396 kts 287°
2026-04-16 13:59 29.26552 90.43696 38617 ft 397 kts 287°
2026-04-16 14:00 29.27315 90.40648 38745 ft 399 kts 287°
2026-04-16 14:00 29.28089 90.37560 38883 ft 399 kts 287°
2026-04-16 14:00 29.29620 90.31447 38915 ft 401 kts 286°
2026-04-16 14:01 29.31130 90.25281 38916 ft 401 kts 284°
2026-04-16 14:01 29.32239 90.19055 38930 ft 402 kts 279°
2026-04-16 14:02 29.32831 90.12570 38929 ft 404 kts 275°
2026-04-16 14:02 29.33065 90.06155 38914 ft 404 kts 274°
2026-04-16 14:03 29.33285 89.99680 38901 ft 403 kts 274°
2026-04-16 14:03 29.33497 89.93282 38894 ft 403 kts 274°
2026-04-16 14:04 29.33706 89.86813 38907 ft 404 kts 274°
2026-04-16 14:04 29.33908 89.80401 38912 ft 403 kts 274°
2026-04-16 14:05 29.34110 89.73930 38922 ft 403 kts 275°
2026-04-16 14:05 29.34308 89.67589 38897 ft 402 kts 274°
2026-04-16 14:06 29.34500 89.61144 38887 ft 402 kts 275°
2026-04-16 14:06 29.34694 89.54731 38870 ft 402 kts 274°
2026-04-16 14:07 29.34883 89.48324 38863 ft 402 kts 274°
2026-04-16 14:07 29.35069 89.41881 38862 ft 403 kts 274°
2026-04-16 14:08 29.35022 89.35416 38873 ft 405 kts 267°
2026-04-16 14:08 29.33814 89.29107 38880 ft 411 kts 256°
2026-04-16 14:09 29.31380 89.23096 38883 ft 419 kts 244°
2026-04-16 14:09 29.27776 89.17746 38867 ft 426 kts 234°
2026-04-16 14:10 29.23726 89.12718 38846 ft 428 kts 233°
2026-04-16 14:10 29.19679 89.07734 38825 ft 427 kts 233°
2026-04-16 14:11 29.15617 89.02742 38832 ft 427 kts 233°
2026-04-16 14:11 29.11562 88.97762 38821 ft 427 kts 233°
2026-04-16 14:12 29.07513 88.92796 38810 ft 427 kts 233°
2026-04-16 14:12 29.03429 88.87790 38814 ft 428 kts 233°
2026-04-16 14:13 28.99344 88.82791 38806 ft 429 kts 233°
2026-04-16 14:13 28.95275 88.77817 38806 ft 427 kts 233°
2026-04-16 14:14 28.91172 88.72810 38812 ft 429 kts 233°
2026-04-16 14:14 28.87098 88.67860 38810 ft 429 kts 233°
2026-04-16 14:15 28.82987 88.62888 38849 ft 429 kts 233°
2026-04-16 14:15 28.78871 88.57896 38860 ft 430 kts 233°
2026-04-16 14:16 28.74794 88.52946 38869 ft 430 kts 233°
2026-04-16 14:16 28.70674 88.47948 38862 ft 428 kts 234°
2026-04-16 14:17 28.66583 88.42991 38862 ft 428 kts 234°
2026-04-16 14:17 28.62471 88.38006 38871 ft 428 kts 234°
2026-04-16 14:18 28.58382 88.33055 38888 ft 428 kts 233°
2026-04-16 14:18 28.54301 88.28101 38919 ft 430 kts 234°
2026-04-16 14:19 28.50185 88.23123 38940 ft 429 kts 233°
2026-04-16 14:19 28.46064 88.18150 38957 ft 430 kts 234°
2026-04-16 14:20 28.41919 88.13153 38965 ft 430 kts 233°
2026-04-16 14:20 28.37820 88.08227 38992 ft 429 kts 234°
2026-04-16 14:21 28.33693 88.03294 39023 ft 429 kts 234°
2026-04-16 14:21 28.29547 87.98338 39020 ft 429 kts 234°
2026-04-16 14:22 28.25438 87.93427 39027 ft 429 kts 234°
2026-04-16 14:22 28.21327 87.88517 39063 ft 427 kts 234°
2026-04-16 14:23 28.17212 87.83602 39068 ft 428 kts 234°
2026-04-16 14:23 28.13081 87.78674 39052 ft 429 kts 234°
2026-04-16 14:24 28.08969 87.73779 39059 ft 430 kts 234°
2026-04-16 14:24 28.04834 87.68860 39070 ft 429 kts 234°
2026-04-16 14:25 28.00695 87.63940 39091 ft 428 kts 234°
2026-04-16 14:25 27.96598 87.59074 39096 ft 428 kts 234°
2026-04-16 14:26 27.92461 87.54162 39103 ft 428 kts 234°
2026-04-16 14:26 27.88243 87.49384 39087 ft 433 kts 230°
2026-04-16 14:27 27.85894 87.47134 38863 ft 437 kts 227°
2026-04-16 14:27 27.83475 87.45087 38578 ft 438 kts 224°
2026-04-16 14:27 27.80893 87.43158 38291 ft 440 kts 220°
2026-04-16 14:27 27.78196 87.41399 38002 ft 442 kts 217°
2026-04-16 14:28 27.75424 87.39834 37727 ft 444 kts 213°
2026-04-16 14:28 27.72551 87.38442 37446 ft 448 kts 211°
2026-04-16 14:28 27.69629 87.37085 37148 ft 448 kts 211°
2026-04-16 14:28 27.66704 87.35732 36874 ft 449 kts 211°
2026-04-16 14:29 27.63786 87.34380 36600 ft 450 kts 210°
2026-04-16 14:29 27.60862 87.33018 36314 ft 450 kts 210°
2026-04-16 14:29 27.57932 87.31653 36036 ft 450 kts 210°
2026-04-16 14:29 27.55010 87.30296 35761 ft 451 kts 210°
2026-04-16 14:30 27.52131 87.28960 35489 ft 453 kts 210°
2026-04-16 14:30 27.49160 87.27588 35206 ft 455 kts 210°
2026-04-16 14:30 27.46201 87.26224 34932 ft 456 kts 209°
2026-04-16 14:30 27.43223 87.24853 34663 ft 457 kts 209°
2026-04-16 14:31 27.40237 87.23471 34385 ft 457 kts 211°
2026-04-16 14:31 27.37546 87.21686 34090 ft 442 kts 226°
2026-04-16 14:31 27.35474 87.19203 33824 ft 430 kts 241°
2026-04-16 14:31 27.34095 87.16244 33547 ft 420 kts 256°
2026-04-16 14:32 27.33461 87.13060 33278 ft 413 kts 269°
2026-04-16 14:32 27.33556 87.09840 33019 ft 408 kts 282°
2026-04-16 14:32 27.34136 87.06706 32769 ft 407 kts 284°
2026-04-16 14:32 27.34742 87.03617 32517 ft 408 kts 284°
2026-04-16 14:33 27.35362 87.00472 32261 ft 409 kts 284°
2026-04-16 14:33 27.35982 86.97324 32001 ft 410 kts 284°
2026-04-16 14:33 27.36595 86.94199 31749 ft 410 kts 284°
2026-04-16 14:33 27.37207 86.91070 31491 ft 411 kts 284°
2026-04-16 14:34 27.37826 86.87910 31235 ft 412 kts 284°
2026-04-16 14:34 27.38445 86.84745 30979 ft 412 kts 284°
2026-04-16 14:34 27.39060 86.81601 30725 ft 413 kts 284°
2026-04-16 14:34 27.39683 86.78404 30469 ft 413 kts 284°
2026-04-16 14:35 27.40297 86.75254 30217 ft 413 kts 284°
2026-04-16 14:35 27.40916 86.72076 29955 ft 414 kts 284°
2026-04-16 14:35 27.41531 86.68911 29701 ft 415 kts 284°
2026-04-16 14:35 27.42148 86.65728 29454 ft 415 kts 284°
2026-04-16 14:36 27.42764 86.62548 29196 ft 414 kts 284°
2026-04-16 14:36 27.43381 86.59361 28927 ft 413 kts 283°
2026-04-16 14:36 27.43989 86.56210 28661 ft 411 kts 284°
2026-04-16 14:36 27.44596 86.53061 28397 ft 410 kts 284°
2026-04-16 14:37 27.45199 86.49937 28138 ft 409 kts 284°
2026-04-16 14:37 27.45810 86.46770 27885 ft 409 kts 284°
2026-04-16 14:37 27.46413 86.43637 27621 ft 409 kts 284°
2026-04-16 14:37 27.47012 86.40518 27363 ft 408 kts 284°
2026-04-16 14:38 27.47610 86.37408 27104 ft 407 kts 284°
2026-04-16 14:38 27.48208 86.34283 26810 ft 407 kts 283°
2026-04-16 14:38 27.48809 86.31139 26454 ft 406 kts 283°
2026-04-16 14:38 27.49388 86.28033 26002 ft 403 kts 282°
2026-04-16 14:39 27.49848 86.24935 25456 ft 400 kts 279°
2026-04-16 14:39 27.50222 86.21842 24856 ft 398 kts 278°
2026-04-16 14:39 27.50589 86.18771 24277 ft 395 kts 278°
2026-04-16 14:39 27.50955 86.15694 23681 ft 392 kts 278°
2026-04-16 14:40 27.51312 86.12685 23092 ft 390 kts 278°
2026-04-16 14:40 27.51671 86.09667 22529 ft 388 kts 278°
2026-04-16 14:40 27.52032 86.06615 21950 ft 386 kts 278°
2026-04-16 14:40 27.52386 86.03609 21395 ft 385 kts 278°
2026-04-16 14:41 27.52735 86.00638 20885 ft 382 kts 279°
2026-04-16 14:41 27.53084 85.97687 20436 ft 377 kts 279°
2026-04-16 14:41 27.53426 85.94785 20280 ft 363 kts 279°
2026-04-16 14:41 27.53751 85.92014 20052 ft 352 kts 279°
2026-04-16 14:42 27.54062 85.89354 19914 ft 339 kts 279°
2026-04-16 14:42 27.54378 85.86762 19844 ft 323 kts 281°
2026-04-16 14:42 27.54796 85.84318 19786 ft 311 kts 285°
2026-04-16 14:42 27.55351 85.81953 19435 ft 310 kts 289°
2026-04-16 14:43 27.55983 85.79668 19067 ft 308 kts 289°
2026-04-16 14:43 27.56632 85.77359 18705 ft 306 kts 289°
2026-04-16 14:43 27.57278 85.75060 18329 ft 305 kts 289°
2026-04-16 14:43 27.57915 85.72787 17972 ft 304 kts 289°
2026-04-16 14:44 27.58546 85.70528 17606 ft 303 kts 290°
2026-04-16 14:44 27.59177 85.68259 17256 ft 301 kts 290°
2026-04-16 14:44 27.59805 85.66009 16913 ft 300 kts 289°
2026-04-16 14:44 27.60428 85.63771 16577 ft 299 kts 289°
2026-04-16 14:45 27.61047 85.61543 16242 ft 297 kts 289°
2026-04-16 14:45 27.61660 85.59333 15905 ft 296 kts 289°
2026-04-16 14:45 27.62271 85.57126 15559 ft 294 kts 289°
2026-04-16 14:45 27.62886 85.54905 15219 ft 293 kts 289°
2026-04-16 14:46 27.63489 85.52725 14887 ft 292 kts 289°
2026-04-16 14:46 27.64097 85.50525 14545 ft 290 kts 288°
2026-04-16 14:46 27.64695 85.48362 14209 ft 289 kts 288°
2026-04-16 14:46 27.65427 85.46235 13840 ft 288 kts 297°
2026-04-16 14:47 27.66433 85.44279 13575 ft 282 kts 306°
2026-04-16 14:47 27.67631 85.42585 13521 ft 267 kts 314°
2026-04-16 14:47 27.68953 85.41166 13474 ft 253 kts 319°
2026-04-16 14:47 27.70262 85.39921 13436 ft 240 kts 321°
2026-04-16 14:48 27.71496 85.38762 13485 ft 218 kts 321°
2026-04-16 14:48 27.72592 85.37618 13273 ft 210 kts 311°
2026-04-16 14:48 27.73368 85.36226 13009 ft 205 kts 296°
2026-04-16 14:48 27.73794 85.34713 12773 ft 199 kts 282°
2026-04-16 14:49 27.73887 85.33176 12540 ft 193 kts 269°
2026-04-16 14:49 27.73672 85.31704 12348 ft 185 kts 256°
2026-04-16 14:49 27.73201 85.30373 12124 ft 178 kts 244°
2026-04-16 14:49 27.72521 85.29230 11918 ft 171 kts 232°
2026-04-16 14:50 27.71658 85.28278 11732 ft 173 kts 220°
2026-04-16 14:50 27.70596 85.27519 11563 ft 190 kts 208°
2026-04-16 14:50 27.69315 85.27003 11324 ft 197 kts 194°
2026-04-16 14:50 27.67934 85.26838 11076 ft 197 kts 180°
2026-04-16 14:51 27.66569 85.27042 10839 ft 198 kts 166°
2026-04-16 14:51 27.65293 85.27595 10618 ft 196 kts 152°
2026-04-16 14:51 27.64164 85.28464 10386 ft 196 kts 140°
2026-04-16 14:51 27.63210 85.29574 10117 ft 196 kts 128°
2026-04-16 14:53 27.62772 85.39461 8607 ft 188 kts 56°
2026-04-16 14:53 27.63578 85.40629 8397 ft 188 kts 47°
2026-04-16 14:54 27.64465 85.41704 8197 ft 187 kts 45°
2026-04-16 14:54 27.65370 85.42780 7995 ft 187 kts 45°
2026-04-16 14:54 27.66268 85.43854 7792 ft 187 kts 46°
2026-04-16 14:54 27.67147 85.44912 7638 ft 182 kts 46°
2026-04-16 14:55 27.68039 85.45971 7575 ft 186 kts 42°
2026-04-16 14:55 27.69091 85.46774 7448 ft 174 kts 23°
2026-04-16 14:55 27.70203 85.47146 7239 ft 163 kts
2026-04-16 14:55 27.71319 85.47138 7050 ft 153 kts 349°
2026-04-16 14:56 27.72323 85.46828 6858 ft 147 kts 335°
2026-04-16 14:56 27.73207 85.46265 6684 ft 145 kts 321°
2026-04-16 14:56 27.73943 85.45480 6500 ft 144 kts 307°
2026-04-16 14:56 27.74488 85.44524 6319 ft 143 kts 293°
2026-04-16 14:57 27.74811 85.43466 6136 ft 143 kts 280°
2026-04-16 14:57 27.74904 85.42352 5949 ft 143 kts 266°
2026-04-16 14:57 27.74760 85.41235 5755 ft 142 kts 253°
2026-04-16 14:57 27.74388 85.40192 5559 ft 142 kts 242°
2026-04-16 14:58 27.73903 85.39220 5356 ft 142 kts 239°
2026-04-16 14:58 27.72701 85.37460 4961 ft 141 kts 218°
2026-04-16 14:58 27.71845 85.36912 4777 ft 141 kts 204°
2026-04-16 14:59 27.70926 85.36500 4522 ft 139 kts 202°
2026-04-16 14:59 27.70087 85.36114 4458 ft 100 kts 201°
2026-04-16 14:59 27.69712 85.35945 4447 ft 26 kts 201°
2026-04-16 14:59 27.69537 85.35866 4438 ft 25 kts 201°
2026-04-16 15:00 27.69475 85.35786 4433 ft 14 kts 281°
2026-04-16 15:00 27.69523 85.35741 4435 ft 7 kts 20°
2026-04-16 15:00 27.69557 85.35755 4438 ft 6 kts 18°
2026-04-16 15:00 27.69655 85.35798 4446 ft 19 kts 21°
2026-04-16 15:01 27.69773 85.35850 4449 ft 13 kts 21°
2026-04-16 15:01 27.69830 85.35877 4451 ft 5 kts
2026-04-16 15:01 27.69854 85.35848 4452 ft 5 kts 294°
2026-04-16 15:01 27.69869 85.35807 4452 ft 6 kts 291°
2026-04-16 15:02 27.69876 85.35788 4452 ft 0 kts 292°